Meteo Giornale » Osservazioni meteo Croazia » Pula Aerodrome

ore: 13:30 - Osservazioni Meteo Pula Aerodrome
Lat. 45° 54' N Lon. 13° 55' E Alt. 63 metri s.l.m.

sereno Europe/Zagreb

25 °C

Sereno

Temp. 24 Ore

17 °C

26 °C

Est

7.4 Km/h

Dew point 9 °C

Umidità 36 %

Visibilità  10 Km

Il sole sorge alle ore 06:46

Il sole tramonta alle ore 19:09

Data e Ora Cielo e Fenomeni T °C DP °C Um. % Pres. hPa Vis. km Vento km/h
Oggi h: 13:30 sereno Sereno 25 9 36 1019 10 E 7.4
Oggi h: 13:00 sereno Sereno 25 9 36 1019 10 N 7.4
Oggi h: 12:30 sereno Sereno 24 11 43 1019 10 E 13
Oggi h: 12:00 sereno Sereno 23 10 43 1019 10 E 18.5
Oggi h: 11:30 sereno Sereno 23 10 43 1019 10 E 16.7
Oggi h: 11:00 sereno Sereno 23 11 46 1020 10 E/NE 13
Oggi h: 10:30 sereno Sereno 22 10 46 1020 10 E 20.3
Oggi h: 10:00 sereno Sereno 22 10 46 1019 10 E/NE 18.5
Oggi h: 09:30 sereno Sereno 21 10 49 1020 10 E/NE 16.7
Oggi h: 09:00 sereno Sereno 20 10 52 1019 10 E/NE 14.8
Oggi h: 08:30 sereno Sereno 19 10 55 1019 10 E/NE 14.8
Oggi h: 08:00 sereno Sereno 18 10 59 1019 10 E/NE 16.7
Oggi h: 07:30 sereno Sereno 17 9 59 1019 10 E/NE 13
Oggi h: 07:00 sereno Sereno 17 9 59 1019 10 E/NE 9.3
Oggi h: 06:30 sereno Sereno 18 9 55 1019 10 E/NE 14.8
Oggi h: 06:00 sereno Sereno 18 9 55 1019 10 E/NE 16.7
Oggi h: 05:30 sereno Sereno 18 9 55 1019 10 E/NE 13
Oggi h: 05:00 sereno Sereno 17 8 55 1019 10 NE 14.8
Oggi h: 04:30 sereno Sereno 18 8 51 1019 10 E/NE 18.5
Oggi h: 04:00 sereno Sereno 18 8 51 1019 10 NE 14.8
Oggi h: 03:30 sereno Sereno 18 8 51 1020 10 E/NE 16.7
Oggi h: 03:00 sereno Sereno 19 8 48 1020 10 E/NE 20.3
Oggi h: 02:30 sereno Sereno 19 8 48 1020 10 E/NE 20.3
Oggi h: 02:00 sereno Sereno 19 8 48 1020 10 E/NE 16.7
Oggi h: 01:30 sereno Sereno 19 8 48 1020 10 E/NE 18.5
Oggi h: 01:00 sereno Sereno 19 9 52 1020 10 E/NE 16.7
Oggi h: 00:30 sereno Sereno 19 9 52 1020 10 E/NE 16.7
Oggi h: 00:00 sereno Sereno 20 10 52 1020 10 E/NE 22.2
Ieri h: 23:30 sereno Sereno 19 10 55 1020 10 E/NE 18.5
Ieri h: 23:00 sereno Sereno 20 11 56 1020 10 E/NE 20.3
Ieri h: 22:30 sereno Sereno 20 11 56 1020 10 E/NE 27.8
Ieri h: 22:00 sereno Sereno 20 11 56 1020 10 E 29.6
Ieri h: 21:30 sereno Sereno 20 12 59 1020 10 E 27.8
Ieri h: 21:00 sereno Sereno 20 12 59 1020 10 E 24
Ieri h: 20:30 sereno Sereno 20 12 59 1019 10 E/NE 18.5
Ieri h: 20:00 sereno Sereno 20 12 59 1019 10 E/NE 18.5
Ieri h: 19:30 sereno Sereno 20 12 59 1019 10 NE 11.1
Ieri h: 19:00 sereno Sereno 21 12 56 1019 10 NE 9.3
Ieri h: 18:00 sereno Sereno 24 12 47 1019 10 NE 14.8
Ieri h: 17:30 sereno Sereno 24 12 47 1019 10 NE 14.8
Ieri h: 17:00 sereno Sereno 25 12 44 1019 10 NE 16.7
Ieri h: 16:30 sereno Sereno 25 12 44 1019 10 E 22.2
Ieri h: 16:00 sereno Sereno 25 12 44 1019 10 E/NE 18.5
Ieri h: 15:30 sereno Sereno 26 12 41 1019 10 E/NE 20.3
Ieri h: 15:00 sereno Sereno 25 11 41 1019 10 NE 20.3